When you browse on this site, cookies collect data to enhance your experience and personalize the content and advertising you see.
Visit our Privacy Policy to learn more. By continuing to use the site, you agree to this use of cookies and data.
  • In Hungary
  • List of Countries
  • For 7 days
  • Water Temperature
  • Weather Map
  • News
  • Weather Widgets
  • user-avatar
    Login

    Hourly Weather Rysli

    Today, 15 October, Tuesday

    Time Temperature Precipitation Wind Pressure Humidity
    00:00 +15°C° 0 mm 6 mps 749 mmHg 82%
    01:00 +15°C° 0 mm 6 mps 749 mmHg 81%
    02:00 +14°C° 0 mm 6 mps 749 mmHg 81%
    03:00 +14°C° 0 mm 6 mps 748 mmHg 80%
    04:00 +14°C° 0 mm 6 mps 748 mmHg 82%
    05:00 +14°C° 0 mm 6 mps 748 mmHg 84%
    06:00 +13°C° 0 mm 5 mps 748 mmHg 85%
    07:00 +14°C° 0 mm 6 mps 749 mmHg 84%
    08:00 +14°C° 0 mm 6 mps 749 mmHg 83%
    09:00 +14°C° 0 mm 6 mps 750 mmHg 81%
    10:00 +15°C° 0 mm 6 mps 750 mmHg 76%
    11:00 +15°C° 0 mm 6 mps 751 mmHg 70%
    12:00 +16°C° 0 mm 7 mps 751 mmHg 65%
    13:00 +15°C° 0 mm 6 mps 752 mmHg 65%
    14:00 +14°C° 0 mm 6 mps 752 mmHg 66%
    15:00 +13°C° 0 mm 5 mps 753 mmHg 67%
    16:00 +12°C° 0 mm 5 mps 754 mmHg 69%
    17:00 +12°C° 0 mm 5 mps 754 mmHg 72%
    18:00 +11°C° 0 mm 4 mps 755 mmHg 74%
    19:00 +10°C° 0 mm 4 mps 756 mmHg 76%
    20:00 +8°C° 0 mm 4 mps 756 mmHg 78%
    21:00 +8°C° 0 mm 3 mps 757 mmHg 80%
    22:00 +7°C° 0 mm 3 mps 757 mmHg 81%
    23:00 +5°C° 0 mm 3 mps 758 mmHg 82%

    Tomorrow, 16 October, Wednesday

    Time Temperature Precipitation Wind Pressure Humidity
    00:00 +5°C° 0 mm 3 mps 758 mmHg 83%
    01:00 +4°C° 0 mm 3 mps 759 mmHg 84%
    02:00 +4°C° 0 mm 2 mps 759 mmHg 84%
    03:00 +4°C° 0 mm 2 mps 760 mmHg 85%
    04:00 +3°C° 0 mm 2 mps 760 mmHg 85%
    05:00 +3°C° 0 mm 2 mps 760 mmHg 85%
    06:00 +2°C° 0 mm 2 mps 761 mmHg 85%
    07:00 +3°C° 0 mm 2 mps 761 mmHg 80%
    08:00 +3°C° 0 mm 2 mps 761 mmHg 74%
    09:00 +4°C° 0 mm 2 mps 762 mmHg 69%
    10:00 +4°C° 0 mm 2 mps 762 mmHg 64%
    11:00 +5°C° 0 mm 2 mps 762 mmHg 58%
    12:00 +6°C° 0 mm 2 mps 762 mmHg 53%
    13:00 +8°C° 0 mm 1 mps 762 mmHg 52%
    14:00 +8°C° 0 mm 1 mps 761 mmHg 51%
    15:00 +9°C° 0 mm 1 mps 761 mmHg 50%
    16:00 +8°C° 0 mm 1 mps 761 mmHg 54%
    17:00 +7°C° 0 mm 1 mps 761 mmHg 59%
    18:00 +5°C° 0 mm 2 mps 761 mmHg 63%
    19:00 +5°C° 0 mm 2 mps 761 mmHg 65%
    20:00 +5°C° 0 mm 2 mps 761 mmHg 66%
    21:00 +5°C° 0 mm 2 mps 760 mmHg 68%
    22:00 +4°C° 0 mm 3 mps 760 mmHg 69%
    23:00 +4°C° 0 mm 3 mps 760 mmHg 69%

    Day after tomorrow, 17 October, Thursday

    Time Temperature Precipitation Wind Pressure Humidity
    00:00 +4°C° 0 mm 4 mps 759 mmHg 70%
    01:00 +4°C° 0 mm 4 mps 759 mmHg 69%
    02:00 +4°C° 0 mm 4 mps 759 mmHg 69%
    03:00 +5°C° 0 mm 4 mps 759 mmHg 69%
    04:00 +5°C° 0 mm 4 mps 758 mmHg 70%
    05:00 +4°C° 0 mm 4 mps 758 mmHg 71%
    06:00 +4°C° 0 mm 4 mps 758 mmHg 72%
    07:00 +5°C° 0 mm 5 mps 757 mmHg 73%
    08:00 +6°C° 0 mm 5 mps 757 mmHg 73%
    09:00 +7°C° 0 mm 5 mps 756 mmHg 73%
    10:00 +9°C° 0 mm 6 mps 756 mmHg 71%
    11:00 +10°C° 0 mm 6 mps 756 mmHg 69%
    12:00 +13°C° 0 mm 6 mps 755 mmHg 67%
    13:00 +13°C° 0 mm 6 mps 755 mmHg 68%
    14:00 +14°C° 0 mm 6 mps 755 mmHg 69%
    15:00 +14°C° 0 mm 6 mps 754 mmHg 69%
    16:00 +13°C° 0 mm 5 mps 754 mmHg 74%
    17:00 +12°C° 0 mm 4 mps 754 mmHg 79%
    18:00 +11°C° 0 mm 4 mps 754 mmHg 85%
    19:00 +11°C° 0 mm 4 mps 753 mmHg 87%
    20:00 +11°C° 0 mm 3 mps 753 mmHg 89%
    21:00 +11°C° 0 mm 3 mps 753 mmHg 91%
    22:00 +10°C° 0 mm 3 mps 753 mmHg 92%
    23:00 +10°C° 0 mm 3 mps 753 mmHg 93%

    18 October, Friday

    Time Temperature Precipitation Wind Pressure Humidity
    00:00 +10°C° 0 mm 3 mps 753 mmHg 94%
    01:00 +10°C° 0 mm 3 mps 752 mmHg 94%
    02:00 +10°C° 0 mm 2 mps 752 mmHg 95%
    03:00 +9°C° 0 mm 2 mps 752 mmHg 95%
    04:00 +9°C° 0.3 mm 2 mps 752 mmHg 96%
    05:00 +10°C° 0.3 mm 2 mps 752 mmHg 96%
    06:00 +10°C° 0.3 mm 2 mps 752 mmHg 96%
    07:00 +10°C° 1.6 mm 2 mps 752 mmHg 96%
    08:00 +11°C° 1.6 mm 1 mps 752 mmHg 96%
    09:00 +11°C° 1.6 mm 1 mps 752 mmHg 95%
    10:00 +12°C° 3.3 mm 1 mps 752 mmHg 96%
    11:00 +12°C° 3.3 mm 1 mps 753 mmHg 96%
    12:00 +12°C° 3.3 mm 1 mps 753 mmHg 97%
    13:00 +10°C° 0.2 mm 2 mps 753 mmHg 95%
    14:00 +10°C° 0.2 mm 3 mps 754 mmHg 93%
    15:00 +10°C° 0.2 mm 4 mps 754 mmHg 92%
    16:00 +8°C° 0 mm 4 mps 754 mmHg 91%
    17:00 +7°C° 0 mm 4 mps 755 mmHg 90%
    18:00 +6°C° 0 mm 4 mps 755 mmHg 90%
    19:00 +6°C° 0 mm 4 mps 756 mmHg 89%
    20:00 +5°C° 0 mm 3 mps 756 mmHg 88%
    21:00 +5°C° 0 mm 3 mps 757 mmHg 88%
    22:00 +5°C° 0 mm 3 mps 757 mmHg 87%
    23:00 +5°C° 0 mm 3 mps 757 mmHg 86%

    19 October, Saturday

    Time Temperature Precipitation Wind Pressure Humidity
    00:00 +5°C° 0 mm 3 mps 757 mmHg 85%
    01:00 +4°C° 0 mm 3 mps 757 mmHg 85%
    02:00 +4°C° 0 mm 3 mps 758 mmHg 85%
    03:00 +4°C° 0 mm 3 mps 758 mmHg 85%
    04:00 +4°C° 0 mm 3 mps 758 mmHg 85%
    05:00 +4°C° 0 mm 3 mps 758 mmHg 85%
    06:00 +5°C° 0 mm 2 mps 758 mmHg 86%
    07:00 +6°C° 0 mm 2 mps 758 mmHg 86%
    08:00 +6°C° 0 mm 2 mps 759 mmHg 87%
    09:00 +6°C° 0 mm 2 mps 759 mmHg 88%
    10:00 +6°C° 0.1 mm 2 mps 759 mmHg 88%
    11:00 +6°C° 0.1 mm 2 mps 759 mmHg 88%
    12:00 +7°C° 0.1 mm 2 mps 760 mmHg 88%
    13:00 +7°C° 0 mm 2 mps 760 mmHg 88%
    14:00 +8°C° 0 mm 1 mps 760 mmHg 88%
    15:00 +8°C° 0 mm 1 mps 760 mmHg 88%
    16:00 +8°C° 0 mm 1 mps 760 mmHg 89%
    17:00 +8°C° 0 mm 1 mps 760 mmHg 89%
    18:00 +8°C° 0 mm 1 mps 760 mmHg 90%
    19:00 +8°C° 0 mm 1 mps 760 mmHg 90%
    20:00 +8°C° 0 mm 1 mps 760 mmHg 90%
    21:00 +8°C° 0 mm 1 mps 760 mmHg 90%
    22:00 +8°C° 0 mm 1 mps 760 mmHg 90%
    23:00 +7°C° 0 mm 0 mps 760 mmHg 90%

    20 October, Sunday

    Time Temperature Precipitation Wind Pressure Humidity
    00:00 +7°C° 0 mm 0 mps 760 mmHg 90%
    01:00 +7°C° 0 mm 0 mps 760 mmHg 90%
    02:00 +7°C° 0 mm 0 mps 760 mmHg 90%
    03:00 +6°C° 0 mm 0 mps 761 mmHg 91%
    04:00 +6°C° 0 mm 0 mps 761 mmHg 92%
    05:00 +6°C° 0 mm 0 mps 761 mmHg 93%
    06:00 +5°C° 0 mm 0 mps 761 mmHg 93%
    07:00 +6°C° 0 mm 0 mps 761 mmHg 92%
    08:00 +7°C° 0 mm 0 mps 761 mmHg 90%
    09:00 +7°C° 0 mm 0 mps 761 mmHg 88%
    10:00 +8°C° 0 mm 0 mps 761 mmHg 84%
    11:00 +9°C° 0 mm 0 mps 762 mmHg 81%
    12:00 +10°C° 0 mm 0 mps 762 mmHg 77%
    13:00 +10°C° 0 mm 0 mps 762 mmHg 76%
    14:00 +12°C° 0 mm 1 mps 762 mmHg 74%
    15:00 +12°C° 0 mm 1 mps 762 mmHg 73%
    16:00 +11°C° 0 mm 1 mps 762 mmHg 78%
    17:00 +10°C° 0 mm 1 mps 762 mmHg 83%
    18:00 +9°C° 0 mm 1 mps 762 mmHg 88%
    19:00 +9°C° 0 mm 1 mps 762 mmHg 90%
    20:00 +8°C° 0 mm 1 mps 762 mmHg 91%
    21:00 +8°C° 0 mm 1 mps 762 mmHg 92%
    22:00 +8°C° 0 mm 1 mps 762 mmHg 93%
    23:00 +7°C° 0 mm 1 mps 762 mmHg 93%
    Show more